Date,TemperatureHighF,TemperatureAvgF,TemperatureLowF,DewpointHighF,DewpointAvgF,DewpointLowF,HumidityHigh,HumidityAvg,HumidityLow,PressureMaxIn,PressureMinIn,WindSpeedMaxMPH,WindSpeedAvgMPH,GustSpeedMaxMPH,PrecipitationSumIn
2013-1-1,73.2,65.8,54.8,68.0,63.2,54.0,98,91,78,30.06,29.90,4,1,12,0.01
2013-1-2,68.1,57.4,49.0,68.0,52.8,44.0,98,85,64,30.10,29.89,6,3,12,0.01
2013-1-3,49.0,44.6,38.2,45.0,42.3,35.0,96,91,85,30.26,30.09,6,2,12,0.25
2013-1-4,56.4,44.1,34.3,42.0,36.1,32.0,91,75,44,30.33,30.24,6,1,11,0.00
2013-1-5,53.4,47.2,40.4,45.0,37.7,32.0,86,70,49,30.32,30.18,2,0,8,0.00
2013-1-6,56.3,50.9,46.6,47.0,42.9,40.0,87,75,56,30.21,30.10,5,1,11,0.00
2013-1-7,63.7,50.5,40.5,43.0,40.8,38.0,92,71,43,30.25,30.15,5,1,10,0.00
2013-1-8,63.5,56.4,45.6,59.0,51.3,41.0,90,83,76,30.21,30.11,3,0,7,0.00
2013-1-9,70.0,65.8,61.8,67.0,63.8,59.0,97,93,88,30.22,30.12,3,0,6,0.00
2013-1-10,68.3,66.3,62.9,68.0,65.4,62.0,98,96,93,30.22,30.07,6,1,12,0.26
2013-1-11,73.7,67.4,62.3,70.0,66.0,62.0,99,95,86,30.13,30.01,4,0,7,0.27
2013-1-12,74.5,68.1,64.2,69.0,66.3,64.0,99,94,82,30.08,29.96,4,1,9,0.00
2013-1-13,73.7,69.3,65.5,70.0,67.9,65.0,99,95,88,30.00,29.92,9,1,12,0.00
2013-1-14,72.4,69.9,68.4,70.0,68.8,67.0,98,96,91,30.06,29.98,6,1,9,0.00
2013-1-15,74.4,70.1,67.1,71.0,68.9,67.0,98,95,86,30.00,29.90,6,2,10,0.30
2013-1-16,75.4,65.6,52.6,72.0,64.1,52.0,99,94,88,29.94,29.85,7,2,13,0.12
2013-1-17,52.1,44.1,40.9,51.0,39.8,34.0,97,85,73,30.20,29.93,14,3,19,0.14
2013-1-18,60.1,45.6,36.1,40.0,36.9,34.0,93,74,44,30.43,30.21,5,1,14,0.00
2013-1-19,63.0,48.3,34.9,49.0,41.4,32.0,94,78,57,30.35,30.17,5,1,7,0.00
2013-1-20,68.3,53.5,44.1,50.0,46.1,42.0,95,78,44,30.20,30.05,7,1,9,0.00
2013-1-21,67.1,53.2,42.6,48.0,43.7,40.0,96,73,41,30.15,30.03,6,1,9,0.00
2013-1-22,60.6,48.0,38.8,42.0,35.1,28.0,88,64,33,30.29,30.12,7,1,10,0.00
2013-1-23,64.5,48.8,34.2,51.0,41.0,31.0,95,77,48,30.36,30.24,6,1,7,0.00
2013-1-24,73.7,56.7,44.3,59.0,51.4,43.0,99,84,48,30.28,30.16,5,0,7,0.00
2013-1-25,71.8,56.9,44.7,61.0,52.8,44.0,98,87,63,30.25,30.11,5,0,10,0.00
2013-1-26,72.4,60.1,48.5,64.0,56.7,48.0,99,89,66,30.20,30.12,3,0,11,0.00
2013-1-27,72.1,59.7,50.0,60.0,54.9,49.0,97,85,64,30.27,30.19,3,0,8,0.01
2013-1-28,71.3,62.7,56.5,65.0,60.4,56.0,98,92,79,30.26,30.12,2,0,6,0.00
2013-1-29,71.9,66.9,62.1,69.0,65.5,61.0,98,95,89,30.12,29.88,5,1,8,0.07
2013-1-30,74.0,64.6,46.3,72.0,62.1,36.0,97,91,68,30.02,29.60,15,4,19,0.02
2013-1-31,58.5,45.5,33.2,38.0,33.2,28.0,94,66,31,30.25,30.02,8,1,16,0.02
2013-2-1,62.3,48.8,37.4,41.0,36.5,29.0,91,65,37,30.32,30.23,7,1,11,0.00
2013-2-2,61.4,45.5,29.7,49.0,36.3,26.0,94,73,45,30.31,30.11,4,0,7,0.00
2013-2-3,67.7,53.8,44.9,50.0,42.6,31.0,97,72,27,30.19,30.04,6,1,12,0.01
2013-2-4,63.1,53.6,40.6,55.0,46.9,38.0,93,79,47,30.07,29.93,3,0,5,0.00
2013-2-5,65.2,58.3,54.4,62.0,57.1,54.0,98,95,85,29.99,29.90,3,0,5,0.28
2013-2-6,72.4,61.3,55.2,62.0,58.0,54.0,98,89,68,30.08,29.97,3,0,6,0.00
2013-2-7,72.3,62.9,54.8,67.0,60.5,54.0,98,92,72,29.99,29.73,6,1,15,1.26
2013-2-8,69.0,59.0,50.6,62.0,56.1,50.0,99,90,75,30.09,29.88,6,1,11,0.00
2013-2-9,65.4,53.8,44.2,52.0,47.0,42.0,96,80,48,30.20,30.09,5,1,10,0.00
2013-2-10,69.2,59.7,46.4,68.0,58.0,45.0,98,94,89,30.12,29.95,7,2,15,0.00
2013-2-11,74.2,65.8,58.4,71.0,64.2,57.0,97,94,83,30.04,29.96,9,2,13,0.03
2013-2-12,70.9,65.0,57.7,70.0,63.1,57.0,97,94,82,29.98,29.71,7,2,12,0.01
2013-2-13,70.8,59.2,47.7,69.0,54.4,47.0,97,85,57,30.01,29.71,5,1,10,0.05
2013-2-14,54.9,46.0,37.9,47.0,42.0,37.0,96,86,65,30.09,29.95,7,1,8,0.05
2013-2-15,66.1,50.0,35.6,48.0,41.9,35.0,97,77,46,30.10,29.96,5,1,10,0.01
2013-2-16,55.3,47.0,33.3,44.0,31.4,20.0,86,58,31,30.21,29.97,9,2,18,0.00
2013-2-17,55.2,39.9,28.3,33.0,26.2,16.0,88,62,24,30.33,30.21,4,1,8,0.00
2013-2-18,63.1,50.3,34.3,53.0,42.6,31.0,96,76,54,30.27,30.04,8,2,13,0.00
2013-2-19,68.6,59.8,40.1,62.0,51.4,34.0,97,75,42,30.13,29.96,9,2,14,0.79
2013-2-20,59.8,46.2,36.4,39.0,31.3,24.0,83,60,30,30.19,30.04,5,1,11,0.00
2013-2-21,65.5,58.8,38.1,62.0,50.2,35.0,97,75,48,30.06,29.88,5,1,8,0.00
2013-2-22,68.3,65.8,62.9,68.0,65.4,62.0,99,98,96,29.91,29.84,8,1,12,0.25
2013-2-23,68.5,63.2,56.4,68.0,62.7,56.0,99,98,95,29.88,29.72,4,1,9,0.02
2013-2-24,71.3,60.9,51.9,60.0,55.9,51.0,97,85,57,29.93,29.80,6,1,8,1.25
2013-2-25,64.3,60.8,58.0,64.0,59.9,57.0,98,97,90,29.80,29.48,7,1,18,0.65
2013-2-26,66.5,57.9,50.0,66.0,51.8,46.0,99,81,62,29.85,29.45,10,2,18,1.02
2013-2-27,64.6,52.8,44.6,47.0,45.3,43.0,95,77,51,29.96,29.85,5,1,9,0.00
2013-2-28,61.2,52.1,44.3,48.0,38.3,31.0,96,63,33,30.00,29.89,8,1,13,0.00
2013-3-1,55.6,46.6,39.5,40.0,35.5,32.0,85,67,45,30.06,29.93,7,1,10,0.00
2013-3-2,52.0,41.0,29.3,33.0,28.4,25.0,94,64,39,30.10,29.98,10,2,14,0.00
2013-3-3,53.6,41.5,32.8,31.0,27.3,24.0,86,60,33,30.13,30.03,8,2,15,0.00
2013-3-4,63.2,49.2,30.1,57.0,40.9,28.0,91,75,42,30.16,29.97,6,1,13,0.00
2013-3-5,75.7,64.5,47.2,64.0,58.6,42.0,97,82,65,30.06,29.87,8,2,17,0.02
2013-3-6,60.4,48.3,39.2,41.0,33.2,28.0,87,60,32,30.20,30.05,15,2,15,0.02
2013-3-7,63.7,46.9,33.7,45.0,36.7,30.0,92,71,33,30.26,30.14,5,1,10,0.00
2013-3-8,73.3,53.8,37.1,49.0,41.3,34.0,91,67,24,30.24,30.11,4,1,9,0.00
2013-3-9,67.8,56.3,43.0,56.0,48.4,41.0,94,76,54,30.18,30.04,4,0,9,0.00
2013-3-10,70.9,61.9,53.8,62.0,56.0,46.0,93,81,67,30.07,29.94,4,1,12,0.00
2013-3-11,69.5,59.8,49.5,64.0,57.8,46.0,97,93,83,29.94,29.74,8,2,12,0.99
2013-3-12,66.7,52.2,42.6,46.0,39.1,35.0,90,65,33,30.11,29.86,10,3,15,0.00
2013-3-13,67.7,53.7,40.5,40.0,33.9,24.0,84,52,23,30.26,30.11,10,2,16,0.00
2013-3-14,65.5,49.8,37.8,38.0,29.0,23.0,79,49,22,30.35,30.20,6,2,17,0.00
2013-3-15,70.4,53.8,37.2,51.0,42.1,32.0,91,68,34,30.25,30.10,5,1,10,0.00
2013-3-16,77.0,60.9,46.7,61.0,54.6,45.0,98,82,49,30.09,29.95,7,1,15,0.00
2013-3-17,71.4,62.0,54.2,66.0,60.3,53.0,98,94,84,29.98,29.88,6,0,8,0.00
2013-3-18,76.3,67.5,60.8,70.0,65.0,60.0,98,91,80,29.90,29.75,14,1,14,0.01
2013-3-19,78.5,66.0,57.5,64.0,59.7,52.0,97,82,57,29.98,29.82,6,1,10,0.26
2013-3-20,67.1,59.2,42.7,51.0,38.4,34.0,80,48,34,30.01,29.89,6,2,13,0.00
2013-3-21,68.0,52.6,40.5,44.0,34.5,25.0,83,55,20,30.01,29.84,9,1,11,0.00
2013-3-22,68.1,58.4,48.4,53.0,43.2,33.0,78,58,36,29.95,29.84,4,1,11,0.00
2013-3-23,70.8,63.4,60.1,67.0,57.1,42.0,98,81,48,29.85,29.56,4,0,9,0.05
2013-3-24,82.7,71.3,52.8,70.0,61.9,36.0,98,74,43,29.82,29.49,8,2,15,0.15
2013-3-25,61.5,50.8,40.3,37.0,28.2,19.0,72,45,24,30.14,29.82,8,3,15,0.00
2013-3-26,57.3,45.6,34.6,29.0,26.8,24.0,72,50,31,30.30,30.14,8,2,15,0.00
2013-3-27,61.1,45.9,31.2,40.0,32.8,27.0,89,64,31,30.36,30.21,6,1,11,0.00
2013-3-28,69.1,51.6,36.0,44.0,38.0,32.0,89,65,32,30.29,30.18,6,1,11,0.00
2013-3-29,72.8,56.1,38.8,52.0,43.8,36.0,92,68,30,30.28,30.16,4,1,10,0.00
2013-3-30,73.8,60.0,45.9,63.0,55.1,44.0,98,85,57,30.18,30.01,6,1,11,0.00
2013-3-31,77.1,66.9,57.0,69.0,63.4,56.0,98,89,73,30.02,29.84,8,1,11,0.00
2013-4-1,78.9,69.6,57.2,66.0,59.2,53.0,95,72,44,29.98,29.85,7,1,11,0.00
2013-4-2,80.4,65.3,50.8,59.0,52.1,48.0,92,67,34,30.07,29.96,6,1,10,0.00
2013-4-3,61.6,59.1,55.0,60.0,56.7,54.0,97,91,78,30.01,29.75,4,1,14,0.65
2013-4-4,75.1,66.0,61.0,66.0,62.1,60.0,96,88,72,29.88,29.77,4,1,8,0.01
2013-4-5,64.4,57.1,47.4,60.0,51.4,46.0,95,82,61,30.04,29.81,12,2,13,0.01
2013-4-6,71.1,58.7,42.5,58.0,50.2,41.0,98,76,52,30.13,30.02,5,1,9,0.00
2013-4-7,75.7,64.4,47.9,66.0,59.8,47.0,97,86,70,30.11,29.99,6,1,12,0.00
2013-4-8,79.4,71.1,57.9,69.6,65.2,57.0,97,82,65,30.06,29.96,8,1,12,0.00
2013-4-9,80.7,71.1,63.6,68.9,64.3,61.0,95,80,63,30.08,29.95,9,1,11,0.00
2013-4-10,80.4,70.0,59.5,71.3,65.2,58.4,97,85,72,30.02,29.86,12,1,13,0.00
2013-4-11,78.5,72.2,68.4,73.1,70.0,66.4,98,93,83,29.86,29.58,14,2,15,0.86
2013-4-12,77.5,65.6,54.6,68.1,55.1,47.7,97,73,36,29.91,29.67,12,2,12,0.00
2013-4-13,82.3,65.7,48.2,59.8,52.0,45.5,91,65,33,29.99,29.83,8,1,9,0.00
2013-4-14,65.7,63.3,59.8,63.8,60.5,56.0,97,91,74,29.90,29.61,13,1,13,1.48
2013-4-15,82.0,68.5,59.8,72.6,65.2,59.0,97,90,71,30.00,29.80,5,0,7,0.00
2013-4-16,84.0,72.7,63.8,72.0,67.5,62.8,98,85,64,30.07,29.98,9,1,9,0.00
2013-4-17,82.7,73.0,66.7,70.1,67.1,64.6,97,83,58,30.09,29.97,9,0,9,0.00
2013-4-18,80.7,71.8,63.4,73.0,68.2,62.1,97,89,75,29.97,29.84,11,1,11,0.00
2013-4-19,77.0,62.5,50.0,74.0,60.2,48.5,96,92,77,30.09,29.78,15,2,16,0.54
2013-4-20,68.8,56.0,44.2,48.9,43.4,36.5,96,67,36,30.18,30.05,15,2,17,0.01
2013-4-21,78.7,62.2,45.6,54.9,47.1,41.9,89,61,32,30.15,30.04,10,1,12,0.00
2013-4-22,75.0,66.1,59.5,63.5,57.8,49.1,91,75,57,30.09,30.01,8,1,8,0.00
2013-4-23,78.5,67.3,57.5,64.0,60.5,55.7,95,80,56,30.09,29.99,8,1,10,0.00
2013-4-24,78.9,68.1,57.8,69.4,64.8,56.6,98,90,68,30.09,29.99,8,0,10,0.00
2013-4-25,83.3,69.8,61.5,68.1,60.7,45.0,97,75,48,30.20,30.05,11,2,11,0.00
2013-4-26,84.3,68.6,56.5,58.4,49.9,40.7,86,53,32,30.24,30.15,8,1,8,0.00
2013-4-27,78.3,68.1,56.4,69.2,63.8,53.5,96,86,71,30.18,30.01,7,0,9,0.00
2013-4-28,82.3,72.7,66.9,70.4,68.1,65.7,98,86,63,30.04,29.90,5,0,9,0.00
2013-4-29,82.2,70.1,65.5,72.4,66.9,64.0,97,90,63,29.94,29.85,5,1,7,0.25
2013-4-30,82.6,71.8,62.0,72.0,67.1,61.0,98,86,59,29.92,29.85,8,1,9,0.01
2013-5-1,71.9,69.1,67.7,67.5,66.3,65.0,96,91,84,29.93,29.83,11,1,11,0.06
2013-5-2,76.9,69.7,65.5,70.5,65.1,61.9,95,86,74,29.94,29.83,9,1,9,0.20
2013-5-3,71.9,67.7,64.8,66.4,64.1,62.6,96,88,78,29.88,29.74,14,1,16,0.13
2013-5-4,69.8,57.0,47.8,63.8,46.9,40.9,97,73,36,29.87,29.76,15,3,17,0.57
2013-5-5,76.7,59.0,43.6,65.0,47.8,40.7,95,70,37,29.91,29.73,11,1,14,0.02
2013-5-6,70.8,59.5,44.1,55.4,49.2,41.8,94,71,46,29.96,29.85,9,1,11,0.00
2013-5-7,75.8,66.3,53.7,62.4,58.2,51.6,93,76,54,29.98,29.88,8,1,10,0.00
2013-5-8,81.1,67.6,53.2,68.6,61.4,51.8,98,82,52,30.05,29.95,8,1,12,0.00
2013-5-9,82.1,70.3,58.2,70.0,63.6,57.1,98,81,50,30.09,30.00,7,1,8,0.00
2013-5-10,79.1,70.6,61.4,70.2,66.3,60.0,97,87,72,30.07,29.88,11,1,11,0.00
2013-5-11,74.3,68.2,60.8,69.2,66.0,59.0,98,92,82,29.99,29.89,5,0,6,0.15
2013-5-12,82.1,71.5,63.5,64.5,59.1,49.2,98,69,34,30.04,29.91,10,1,11,0.00
2013-5-13,79.8,66.0,51.5,54.4,46.4,38.5,85,54,25,30.19,30.04,10,2,12,0.00
2013-5-14,80.7,67.1,51.0,58.0,52.5,46.0,87,62,35,30.23,30.10,10,1,10,0.00
2013-5-15,85.1,70.7,55.7,64.4,57.9,51.6,95,68,33,30.17,29.99,8,1,10,0.00
2013-5-16,80.0,73.2,66.0,72.3,67.8,63.4,94,84,65,30.02,29.94,9,1,11,0.00
2013-5-17,82.5,74.7,68.2,72.6,70.0,66.8,97,86,68,30.03,29.93,8,1,8,0.00
2013-5-18,85.2,76.1,69.5,72.7,70.5,67.7,97,84,62,30.05,29.97,8,1,9,0.00
2013-5-19,86.3,75.6,65.8,73.2,70.4,64.6,98,85,62,30.02,29.94,8,1,8,0.00
2013-5-20,88.1,78.1,69.6,75.9,71.7,68.4,97,82,54,30.01,29.90,8,1,9,0.00
2013-5-21,88.5,77.6,66.3,74.3,69.8,64.7,98,79,52,29.96,29.84,8,1,8,0.00
2013-5-22,87.9,76.5,65.2,74.2,70.1,63.7,97,82,60,29.94,29.82,8,1,8,0.00
2013-5-23,92.3,79.2,66.7,75.7,69.9,62.2,98,76,39,29.97,29.88,9,1,10,0.00
2013-5-24,92.0,80.2,69.6,70.7,62.7,52.0,94,59,32,30.09,29.93,12,2,15,0.00
2013-5-25,91.3,74.9,59.4,58.0,53.7,48.7,79,50,25,30.17,30.08,6,1,9,0.00
2013-5-26,88.0,74.0,62.0,73.4,65.5,55.8,93,76,49,30.16,30.07,8,1,9,0.00
2013-5-27,89.5,76.1,63.4,70.9,65.5,55.1,97,73,34,30.13,30.02,8,1,8,0.00
2013-5-28,87.8,76.0,63.7,75.1,68.8,61.0,93,80,60,30.06,29.99,9,1,10,0.00
2013-5-29,88.0,78.5,68.1,76.4,71.3,64.0,91,79,64,30.04,29.96,13,1,13,0.00
2013-5-30,89.7,80.9,72.0,74.7,71.7,68.4,92,75,56,30.04,29.95,7,1,12,0.00
2013-5-31,88.4,79.8,72.3,75.1,72.4,69.2,93,79,62,30.04,29.94,12,1,14,0.00
2013-6-1,88.8,81.0,74.3,77.1,74.0,71.4,93,80,65,29.98,29.90,10,1,12,0.00
2013-6-2,90.8,79.9,70.4,77.0,73.1,68.7,96,81,61,29.93,29.80,8,1,9,0.00
2013-6-3,90.5,79.9,71.2,77.3,73.1,68.5,93,81,58,29.87,29.78,5,0,7,0.00
2013-6-4,91.3,81.4,71.6,78.1,74.7,70.0,96,81,62,29.90,29.84,10,1,10,0.00
2013-6-5,90.1,82.0,75.1,77.7,74.3,71.7,92,79,59,29.90,29.80,9,1,9,0.00
2013-6-6,86.8,77.5,71.2,73.7,71.5,69.0,96,83,61,29.85,29.63,14,2,14,0.07
2013-6-7,87.8,78.4,68.5,74.2,70.9,66.7,95,79,59,29.84,29.68,13,1,15,0.00
2013-6-8,91.2,80.5,69.2,76.9,72.9,67.4,95,79,57,29.98,29.83,7,1,9,0.02
2013-6-9,77.5,73.1,71.0,75.6,71.8,69.5,97,96,91,30.03,29.91,8,1,8,3.81
2013-6-10,81.3,76.3,72.4,77.2,73.8,70.7,97,92,78,30.04,29.93,5,0,5,0.24
2013-6-11,90.8,80.9,72.0,80.7,75.6,71.0,98,85,69,30.04,29.94,8,1,8,0.00
2013-6-12,95.1,83.4,72.4,81.9,76.3,71.2,98,81,56,30.02,29.93,5,1,8,0.00
2013-6-13,93.0,84.1,74.7,81.0,76.1,71.8,96,78,59,29.96,29.79,11,1,12,0.00
2013-6-14,95.0,85.1,78.8,79.3,75.4,68.9,92,74,46,29.88,29.76,9,1,11,0.00
2013-6-15,92.7,82.8,73.0,80.8,74.6,67.0,86,77,63,29.97,29.85,10,1,10,0.00
2013-6-16,90.8,83.7,77.8,80.9,77.6,75.0,93,82,69,30.01,29.93,8,1,9,0.00
2013-6-17,89.8,81.9,71.2,80.2,76.7,69.7,97,85,70,29.98,29.90,14,1,14,0.84
2013-6-18,89.0,81.2,72.5,79.5,75.3,70.8,95,83,65,29.96,29.84,10,1,12,0.97
2013-6-19,90.4,79.1,70.9,78.4,73.3,69.7,97,83,56,29.97,29.85,12,0,12,0.26
2013-6-20,89.5,78.9,72.4,79.6,74.0,70.2,97,86,66,30.03,29.93,6,0,6,0.66
2013-6-21,88.1,78.0,71.1,78.7,74.1,69.9,97,88,68,30.06,29.98,8,0,8,0.13
2013-6-22,90.5,79.4,70.9,77.1,72.8,69.0,95,81,61,30.06,29.94,7,1,7,0.00
2013-6-23,86.6,78.0,73.2,78.0,74.4,71.7,97,89,72,30.08,29.97,6,0,7,1.44
2013-6-24,91.4,81.6,73.6,80.6,75.4,71.0,97,82,62,30.11,30.02,7,0,8,0.00
2013-6-25,88.6,79.8,72.5,78.8,74.5,70.2,95,84,68,30.08,29.96,2,0,6,0.00
2013-6-26,91.7,81.4,71.4,79.6,74.8,69.8,97,82,62,30.03,29.92,8,0,9,0.03
2013-6-27,92.5,83.8,73.7,81.5,77.1,71.9,95,81,63,29.95,29.83,9,1,9,0.00
2013-6-28,94.0,82.8,74.9,82.1,77.2,69.6,96,84,58,29.86,29.72,16,1,16,0.02
2013-6-29,87.8,80.6,73.7,80.4,76.0,70.5,97,86,70,29.72,29.62,6,0,10,0.18
2013-6-30,84.9,77.6,70.6,78.4,74.0,68.9,97,89,77,29.71,29.63,10,0,11,0.02
2013-7-1,91.2,80.0,69.0,78.3,72.3,67.8,98,79,55,29.84,29.70,9,1,10,0.00
2013-7-2,91.0,81.4,71.2,74.1,72.0,67.9,94,75,48,29.94,29.82,7,1,8,0.00
2013-7-3,77.3,73.4,71.3,74.5,72.0,69.8,98,96,89,29.99,29.90,4,0,7,1.36
2013-7-4,78.4,74.8,72.7,75.1,73.3,71.7,98,95,86,29.99,29.86,15,2,15,3.76
2013-7-5,78.4,73.1,69.0,74.6,71.6,68.0,98,95,88,30.05,29.96,7,0,10,3.11
2013-7-6,78.8,74.6,69.8,76.6,73.3,69.1,98,96,86,30.01,29.94,6,0,6,2.74
2013-7-7,88.0,78.7,72.5,80.2,75.3,71.6,98,90,75,30.06,29.98,7,0,9,0.00
2013-7-8,91.1,79.9,73.9,80.6,75.5,72.7,97,87,64,30.11,30.04,7,0,8,0.00
2013-7-9,91.3,80.2,70.4,79.3,74.4,69.2,97,84,64,30.12,30.01,4,0,7,0.00
2013-7-10,91.1,77.5,71.5,80.3,74.1,70.0,97,90,63,30.04,29.91,8,0,9,0.26
2013-7-11,77.2,74.3,72.9,76.4,73.3,71.7,98,97,92,29.96,29.83,6,0,6,3.08
2013-7-12,91.4,80.2,71.7,80.1,74.7,70.8,98,84,63,29.86,29.77,6,0,8,0.02
2013-7-13,89.5,76.6,69.7,80.4,73.1,68.0,96,89,66,29.93,29.81,4,0,11,0.49
2013-7-14,83.2,76.4,68.9,79.0,73.7,68.0,98,91,82,29.98,29.86,5,1,9,0.15
2013-7-15,91.2,80.0,74.6,78.0,74.7,71.8,96,84,61,30.08,29.98,6,1,10,0.00
2013-7-16,92.3,80.3,74.4,78.7,74.3,71.8,94,83,59,30.12,30.03,8,1,9,0.02
2013-7-17,93.5,82.3,72.7,77.9,73.8,71.0,95,78,51,30.15,30.02,8,1,8,0.01
2013-7-18,91.3,81.1,72.0,79.6,74.1,69.0,92,80,61,30.07,29.94,9,1,9,0.00
2013-7-19,90.8,80.2,73.3,78.1,74.4,71.0,95,83,62,30.02,29.90,6,0,7,0.00
2013-7-20,85.5,78.9,74.4,80.3,75.7,72.0,97,90,76,29.98,29.88,10,1,11,0.20
2013-7-21,89.5,79.6,74.4,78.5,74.8,71.9,95,86,64,30.01,29.93,11,1,11,0.03
2013-7-22,85.9,76.0,72.0,79.6,74.2,71.0,97,94,79,30.03,29.95,9,0,11,1.29
2013-7-23,91.2,78.9,71.2,81.0,74.8,69.4,99,88,65,29.97,29.86,13,1,16,0.44
2013-7-24,88.7,79.6,71.7,81.0,76.0,70.8,98,89,72,29.88,29.80,9,0,10,0.30
2013-7-25,88.8,79.3,73.3,80.7,75.2,70.5,96,88,73,29.93,29.79,7,0,10,0.25
2013-7-26,92.4,81.8,73.1,79.2,74.8,69.8,95,81,52,29.98,29.89,7,0,7,0.00
2013-7-27,87.0,76.9,73.2,80.7,74.7,70.0,97,93,78,29.93,29.85,13,0,13,0.82
2013-7-28,88.5,78.7,71.2,80.0,75.1,69.8,97,89,72,29.95,29.83,8,1,11,0.22
2013-7-29,91.5,82.7,74.8,81.8,77.4,73.6,97,85,67,30.06,29.91,8,0,10,0.00
2013-7-30,91.9,82.9,74.9,81.2,77.1,73.6,97,84,62,30.10,30.00,8,0,9,0.00
2013-7-31,91.5,80.7,75.8,81.4,77.2,73.5,96,90,66,30.04,29.93,7,0,8,0.07
2013-8-1,85.6,80.2,76.1,80.0,76.9,74.6,96,90,78,29.95,29.86,7,0,8,0.01
2013-8-2,91.9,82.3,73.5,82.1,77.3,72.0,97,86,67,29.97,29.86,7,0,8,0.00
2013-8-3,91.6,83.1,76.0,81.6,78.0,74.8,97,85,69,30.00,29.91,7,0,8,0.11
2013-8-4,96.3,83.5,75.2,82.6,77.0,74.0,97,83,53,30.00,29.89,9,0,9,0.15
2013-8-5,95.3,82.6,73.2,81.7,76.2,71.7,96,83,50,29.96,29.86,8,0,8,0.00
2013-8-6,94.3,81.8,73.1,80.3,75.6,71.6,96,83,56,29.95,29.84,10,1,13,0.15
2013-8-7,94.8,79.6,71.4,82.0,75.4,70.0,96,88,60,29.92,29.83,7,0,8,0.05
2013-8-8,92.0,79.3,74.5,82.4,76.1,73.0,96,90,68,29.92,29.86,6,0,8,0.01
2013-8-9,93.1,82.6,74.9,82.0,77.0,73.7,97,84,59,30.00,29.89,8,0,8,0.01
2013-8-10,92.3,79.5,74.5,79.1,75.4,73.0,96,88,59,30.04,29.96,7,0,9,0.10
2013-8-11,92.6,82.2,73.5,81.6,76.8,72.6,97,85,64,30.09,30.00,8,0,8,0.01
2013-8-12,93.5,80.6,74.7,81.6,76.2,73.5,96,87,62,30.06,29.97,8,0,9,0.14
2013-8-13,88.8,77.3,72.7,80.4,75.2,71.7,98,93,73,29.99,29.87,8,0,8,0.32
2013-8-14,90.0,78.2,72.6,79.2,74.6,71.0,97,89,67,29.90,29.82,6,0,8,0.18
2013-8-15,89.0,79.0,73.0,79.0,74.9,72.0,97,88,66,29.92,29.83,9,0,10,0.00
2013-8-16,82.9,76.3,73.4,77.4,74.4,72.0,97,94,81,29.95,29.85,5,0,5,0.38
2013-8-17,73.5,71.9,69.3,72.6,71.1,68.4,98,97,95,29.98,29.88,8,1,8,3.63
2013-8-18,83.5,74.8,70.3,80.2,73.3,69.7,99,95,82,30.00,29.93,6,0,6,0.59
2013-8-19,89.8,79.2,69.9,82.1,75.5,69.0,99,89,69,30.00,29.91,8,0,8,0.00
2013-8-20,88.9,77.4,72.6,80.4,74.7,71.7,97,92,68,30.04,29.92,7,0,8,0.16
2013-8-21,91.9,77.2,70.0,81.0,73.4,69.0,98,89,65,30.08,29.99,5,0,8,0.01
2013-8-22,89.3,80.5,72.2,80.2,75.6,70.0,95,85,72,30.05,29.91,7,0,8,0.00
2013-8-23,83.6,76.0,72.0,78.4,73.7,70.8,97,93,82,29.97,29.89,7,0,7,0.74
2013-8-24,86.3,77.6,71.6,79.4,74.8,70.7,98,91,75,30.06,29.93,4,0,5,0.01
2013-8-25,87.3,78.1,71.9,79.0,74.4,71.0,98,89,73,30.13,30.04,8,1,9,0.97
2013-8-26,90.0,79.3,70.7,72.8,68.6,65.4,88,71,47,30.14,30.02,8,1,9,0.00
2013-8-27,90.6,77.7,66.4,74.6,68.9,64.0,93,76,51,30.06,29.94,5,0,6,0.00
2013-8-28,92.2,80.2,69.0,77.4,72.2,67.0,95,78,57,30.00,29.92,5,0,5,0.00
2013-8-29,92.1,81.3,71.5,77.0,72.8,69.0,93,77,53,29.99,29.89,7,0,8,0.00
2013-8-30,93.0,81.9,72.5,80.1,74.1,69.7,92,78,56,29.95,29.82,8,0,9,0.00
2013-8-31,91.5,80.3,74.8,81.3,75.8,72.9,96,87,70,29.88,29.78,6,0,6,0.02
2013-9-1,92.8,79.2,71.1,81.8,75.0,69.9,97,88,67,29.87,29.80,8,0,9,0.00
2013-9-2,89.1,77.8,72.8,81.2,74.3,71.0,97,90,67,29.93,29.83,6,0,7,0.30
2013-9-3,87.8,74.9,71.1,81.0,73.1,69.8,98,95,76,29.93,29.83,6,0,7,1.59
2013-9-4,90.7,79.1,70.1,81.2,75.1,69.0,99,89,67,30.02,29.90,6,0,6,0.01
2013-9-5,93.4,81.4,71.5,80.5,75.3,70.6,98,83,62,30.05,29.96,6,0,8,0.00
2013-9-6,94.0,81.3,72.3,76.3,73.0,70.0,96,78,52,30.03,29.91,6,0,6,0.00
2013-9-7,90.9,79.8,70.7,78.7,72.7,68.0,93,80,54,29.98,29.90,10,0,10,0.00
2013-9-8,93.5,80.3,69.6,76.4,71.8,68.3,96,77,50,29.94,29.86,5,0,6,0.00
2013-9-9,94.1,80.5,68.6,76.3,71.9,67.0,97,77,51,29.99,29.89,6,0,6,0.00
2013-9-10,92.4,81.4,73.0,76.6,72.9,70.0,94,77,52,30.07,29.96,7,0,7,0.00
2013-9-11,92.9,80.9,72.9,74.0,71.0,70.0,91,73,49,30.07,29.96,5,1,8,0.00
2013-9-12,93.5,81.5,73.6,77.0,73.5,71.0,91,78,53,29.98,29.84,4,0,7,0.00
2013-9-13,93.7,81.2,70.8,75.0,72.1,68.0,94,76,47,29.87,29.74,5,1,7,0.00
2013-9-14,90.5,79.4,72.5,74.0,70.4,67.0,91,75,54,29.92,29.77,3,1,6,0.00
2013-9-15,93.5,80.4,68.0,77.0,71.2,64.0,89,75,53,30.00,29.92,3,0,6,0.00
2013-9-16,92.3,79.1,73.6,80.0,74.4,72.0,95,86,62,30.01,29.93,6,1,9,0.01
2013-9-17,92.3,77.8,71.9,80.9,74.1,70.0,97,89,63,30.01,29.91,7,0,7,0.74
2013-9-18,87.4,78.2,71.0,76.4,73.0,69.8,97,85,66,30.03,29.94,8,1,8,0.07
2013-9-19,90.0,78.8,69.9,75.4,71.6,67.3,92,80,58,30.03,29.93,6,0,7,0.01
2013-9-20,89.7,79.7,69.6,80.3,74.5,67.8,95,85,69,29.97,29.81,11,1,11,0.01
2013-9-21,81.8,76.8,72.5,76.2,73.9,71.0,97,91,80,29.81,29.67,11,1,11,1.88
2013-9-22,77.1,72.9,69.2,74.3,71.6,68.3,97,96,91,29.74,29.66,7,1,8,0.55
2013-9-23,88.8,79.0,72.7,80.3,75.1,71.0,96,88,73,29.83,29.71,7,1,7,0.43
2013-9-24,83.9,76.8,71.6,78.8,74.7,70.5,97,93,82,29.84,29.71,10,0,17,0.58
2013-9-25,88.6,77.2,71.0,80.9,73.5,69.8,98,89,64,29.74,29.66,6,0,8,0.01
2013-9-26,84.3,74.0,67.0,74.2,69.6,65.8,98,87,65,29.90,29.73,9,1,9,0.00
2013-9-27,85.1,73.4,64.0,68.4,64.7,61.6,96,76,52,29.99,29.88,10,1,10,0.00
2013-9-28,84.4,72.8,60.3,69.3,64.0,58.3,94,75,54,30.03,29.94,6,1,10,0.00
2013-9-29,86.2,72.9,62.0,70.4,65.0,58.4,91,77,57,30.00,29.88,7,0,7,0.00
2013-9-30,87.5,74.4,67.6,73.1,68.2,63.0,91,81,60,29.94,29.86,5,0,6,0.00
2013-10-1,88.2,75.8,66.3,75.5,70.4,64.6,95,84,61,30.01,29.91,7,0,7,0.00
2013-10-2,78.2,73.5,69.3,74.6,71.4,68.0,97,93,87,30.01,29.94,4,0,4,0.29
2013-10-3,87.9,75.6,66.0,76.8,71.4,65.0,98,88,63,30.02,29.93,5,0,7,0.01
2013-10-4,89.1,75.7,69.2,77.0,72.6,67.8,96,91,63,30.02,29.93,4,0,8,0.00
2013-10-5,89.5,79.5,71.7,80.1,75.1,70.8,97,87,71,29.99,29.89,9,1,10,0.00
2013-10-6,77.1,72.3,70.0,75.2,71.1,68.5,98,96,92,29.89,29.74,3,0,11,1.68
2013-10-7,79.8,70.2,61.7,70.3,63.5,57.0,98,81,58,29.89,29.73,13,2,13,0.08
2013-10-8,84.3,70.0,57.3,70.5,62.7,53.8,93,78,60,29.94,29.85,9,1,9,0.00
2013-10-9,77.8,69.2,63.3,68.6,64.8,61.5,94,86,71,30.06,29.93,8,1,9,0.00
2013-10-10,85.0,69.7,58.2,71.4,64.8,57.0,98,86,59,30.05,29.94,5,0,5,0.00
2013-10-11,86.2,70.3,61.0,70.4,65.3,59.9,98,86,46,30.01,29.90,7,0,7,0.01
2013-10-12,86.5,72.7,63.2,70.9,65.3,62.0,97,80,46,30.02,29.93,9,1,9,0.00
2013-10-13,85.4,72.5,62.4,66.7,63.5,60.7,95,76,47,30.09,29.99,11,1,11,0.00
2013-10-14,86.3,72.9,62.2,68.9,64.2,59.6,93,76,50,30.06,29.94,7,1,10,0.00
2013-10-15,82.4,70.2,61.7,70.3,64.8,60.0,96,84,62,30.01,29.90,5,0,6,0.00
2013-10-16,84.5,70.1,58.8,71.4,64.7,57.7,97,84,58,29.97,29.86,5,0,5,0.00
2013-10-17,84.1,72.7,63.2,74.9,69.1,62.0,98,89,67,29.91,29.82,6,0,7,0.16
2013-10-18,77.3,70.0,66.0,70.3,66.7,64.0,96,90,78,29.94,29.84,8,1,9,0.00
2013-10-19,73.0,67.7,64.0,67.6,64.4,58.7,96,90,77,29.93,29.84,11,1,11,0.01
2013-10-20,77.7,65.9,57.7,63.3,59.3,56.0,95,80,58,29.98,29.89,12,1,12,0.00
2013-10-21,72.1,65.6,61.1,66.2,61.4,56.8,94,86,78,30.00,29.89,5,0,6,0.00
2013-10-22,75.8,67.2,62.1,68.2,63.9,59.2,97,90,71,29.92,29.80,6,0,7,0.06
2013-10-23,73.8,62.5,51.7,59.2,50.9,43.0,92,69,37,30.06,29.86,12,2,12,0.00
2013-10-24,75.3,59.0,46.2,55.4,49.0,42.7,90,71,44,30.17,30.04,5,0,5,0.00
2013-10-25,69.0,57.1,49.3,52.3,45.0,36.0,94,67,37,30.30,30.13,11,2,14,0.00
2013-10-26,71.2,54.4,42.0,48.0,41.6,35.6,92,65,37,30.25,30.10,7,1,7,0.00
2013-10-27,76.3,58.6,42.9,56.7,49.3,40.7,94,74,42,30.12,30.02,5,0,6,0.00
2013-10-28,79.6,63.4,50.9,61.2,55.7,49.0,96,79,45,30.17,30.05,7,0,8,0.00
2013-10-29,79.8,64.7,52.2,65.1,58.9,50.8,97,83,57,30.22,30.12,5,0,5,0.00
2013-10-30,81.1,67.0,55.5,71.0,63.5,54.0,97,89,71,30.18,30.05,5,0,6,0.01
2013-10-31,79.6,71.4,61.3,73.9,68.6,60.0,98,91,81,30.05,29.83,12,1,12,0.12
2013-11-1,76.3,71.6,62.5,74.5,69.9,61.2,97,94,89,29.83,29.72,8,1,10,0.26
2013-11-2,76.6,63.2,52.1,61.2,53.2,46.3,97,73,41,30.03,29.81,9,1,11,0.01
2013-11-3,70.0,55.6,46.9,47.4,44.9,42.4,89,70,38,30.17,30.02,9,1,11,0.00
2013-11-4,76.1,61.6,47.4,57.9,51.1,43.8,89,70,50,30.21,30.13,7,1,8,0.00
2013-11-5,76.0,65.0,55.8,60.7,54.1,46.0,77,68,56,30.23,30.10,11,2,13,0.00
2013-11-6,80.0,67.6,59.9,68.1,62.0,53.0,95,83,65,30.13,30.01,6,0,7,0.00
2013-11-7,68.9,60.6,49.5,67.7,57.2,41.6,97,89,74,30.15,29.97,13,2,16,0.18
2013-11-8,65.8,51.4,44.1,45.0,40.7,37.0,85,69,39,30.22,30.10,9,2,12,0.00
2013-11-9,73.0,58.0,44.0,60.7,51.3,40.7,92,79,61,30.20,30.10,5,0,7,0.00
2013-11-10,75.8,61.7,51.7,62.9,55.9,50.0,95,83,56,30.20,30.09,8,0,8,0.00
2013-11-11,77.5,59.9,47.2,52.8,49.5,45.0,94,72,37,30.18,30.06,5,0,6,0.00
2013-11-12,73.3,58.0,42.9,52.9,46.3,26.5,89,67,45,30.32,30.06,21,2,21,0.00
2013-11-13,56.4,43.1,35.0,30.6,25.7,22.0,79,52,28,30.41,30.30,15,3,15,0.00
2013-11-14,67.2,49.2,29.9,53.0,40.0,25.0,84,71,56,30.36,30.13,7,0,7,0.00
2013-11-15,68.5,61.3,55.5,64.4,57.9,48.8,95,89,75,30.13,29.96,7,0,7,0.01
2013-11-16,73.5,66.0,59.2,66.7,62.9,58.0,97,90,78,30.06,29.96,6,0,7,0.00
2013-11-17,79.5,71.3,66.5,74.6,69.4,65.0,97,94,84,29.96,29.88,7,1,10,0.01
2013-11-18,73.3,68.7,57.6,72.6,66.0,44.5,98,92,60,29.98,29.87,6,0,6,2.03
2013-11-19,66.9,56.3,47.2,48.6,44.5,40.6,85,66,45,30.04,29.93,12,2,14,0.00
2013-11-20,71.5,58.4,46.6,60.1,51.5,42.9,87,78,65,30.12,29.98,8,1,9,0.00
2013-11-21,68.0,62.2,55.2,62.9,57.6,51.0,91,85,81,30.19,30.10,7,1,8,0.00
2013-11-22,73.1,66.2,62.0,67.4,63.0,59.9,95,90,82,30.20,30.09,6,0,7,0.00
2013-11-26,59.0,49.6,46.9,57.6,48.4,45.5,97,96,94,29.77,29.60,14,2,14,3.60
2013-11-27,48.7,42.4,31.8,45.2,35.3,27.0,95,77,53,30.28,29.77,19,3,22,0.01
2013-11-28,51.1,38.2,28.4,33.6,27.8,23.7,92,69,36,30.40,30.27,9,1,9,0.00
2013-11-29,60.9,43.2,30.1,37.2,32.9,27.8,92,71,35,30.46,30.34,9,1,9,0.00
2013-11-30,69.0,49.1,32.3,50.8,40.8,30.5,94,76,37,30.38,30.20,6,0,6,0.00
2013-12-1,66.7,53.7,44.9,55.6,49.1,42.0,96,85,64,30.20,29.96,5,0,5,0.00
2013-12-2,69.1,56.2,48.1,57.0,51.7,46.6,100,86,62,29.96,29.76,7,0,7,0.00
2013-12-3,77.9,62.6,49.9,68.7,59.5,48.8,99,90,71,29.83,29.74,8,0,8,0.00
2013-12-4,75.3,68.3,62.9,71.0,66.9,62.0,99,95,85,29.94,29.82,8,0,8,0.53
2013-12-5,77.2,72.4,69.9,74.2,71.2,69.0,99,96,90,30.02,29.92,9,1,12,0.02
2013-12-6,78.5,73.0,68.6,74.4,71.3,67.7,98,94,86,30.04,29.94,11,1,11,0.00
2013-12-7,72.1,54.9,49.9,71.2,52.3,47.5,97,91,81,30.19,30.03,12,3,14,0.02
2013-12-8,68.3,61.1,49.9,68.0,60.5,48.8,99,98,96,30.15,30.01,5,0,6,0.01
2013-12-9,72.2,67.9,65.3,71.8,67.4,64.7,99,98,97,30.04,29.97,5,0,6,0.12
2013-12-10,66.0,51.9,39.9,65.4,48.9,37.0,99,90,73,30.27,29.96,15,2,18,0.05
2013-12-11,63.6,49.3,37.6,50.3,42.3,33.8,91,78,57,30.31,30.21,7,1,7,0.00
2013-12-12,59.5,48.5,36.2,44.1,35.0,29.1,79,61,36,30.40,30.27,12,2,13,0.00
2013-12-13,61.1,47.8,33.9,48.5,37.0,26.0,85,67,43,30.30,29.99,7,1,7,0.00
2013-12-14,72.5,63.8,53.2,70.2,61.1,48.5,97,91,73,30.01,29.77,9,0,9,0.15
2013-12-15,61.4,46.0,33.8,57.5,41.9,31.7,95,85,70,30.21,29.84,14,3,15,0.03
2013-12-16,61.1,43.7,32.7,43.0,36.4,30.9,94,78,43,30.25,30.17,8,1,8,0.00
2013-12-17,66.3,47.8,35.0,45.4,39.4,33.0,93,75,39,30.27,30.14,5,0,6,0.00
2013-12-18,65.2,49.1,38.0,42.4,38.8,33.6,95,71,34,30.31,30.20,9,1,10,0.00
2013-12-19,65.6,50.6,36.3,55.1,45.6,34.0,96,84,60,30.23,30.08,6,0,7,0.00
2013-12-20,72.2,60.3,48.5,66.1,58.2,47.4,98,93,80,30.11,29.98,5,0,6,0.00
2013-12-21,71.2,67.0,62.4,70.0,66.0,61.5,98,97,93,29.98,29.85,8,1,9,0.02
2013-12-22,74.6,69.5,55.7,72.7,68.3,54.9,98,96,90,30.03,29.86,15,3,15,1.73
2013-12-23,56.2,51.2,41.8,55.4,49.2,36.1,98,93,80,30.28,30.00,18,3,18,1.69
2013-12-24,54.3,41.4,32.2,36.2,32.5,28.8,92,73,43,30.39,30.26,10,2,15,0.00
2013-12-25,55.8,42.7,30.7,40.1,32.8,26.0,87,69,42,30.32,30.19,7,1,7,0.00
2013-12-26,59.5,49.4,40.9,49.2,42.6,38.6,92,78,66,30.25,30.16,10,2,12,0.00
2013-12-27,60.4,52.7,44.7,46.3,41.4,36.9,81,66,53,30.30,30.19,9,2,11,0.00
2013-12-28,57.4,52.3,48.0,56.7,50.4,43.0,100,93,68,30.21,29.80,8,1,10,2.22
2013-12-29,57.4,49.7,41.1,56.8,47.9,40.0,98,94,85,30.06,29.80,9,1,10,0.00
2013-12-30,59.6,49.3,38.6,53.5,47.0,37.8,98,92,76,30.20,30.05,4,0,4,0.00
2013-12-31,51.4,47.7,45.7,49.7,44.7,42.5,94,89,84,30.34,30.18,8,2,9,0.00
2014-1-1,59.6,51.7,45.5,54.4,49.1,43.0,96,91,79,30.27,29.99,4,0,5,0.07
2014-1-2,58.9,51.2,36.3,58.3,47.6,28.4,100,88,68,30.17,29.82,18,2,18,0.11